Weather past 2 weeks in Malakal, South Sudan

Now
59 °F

Rain showers. Passing clouds.


Feels Like: 57 °F
Forecast: 71 / 91 °F
Wind: 9 mph from East

Location: Addis Ababa Airport

Current Time: Jul 28, 2014 at 8:55:44 PM

Latest Report: Jul 28, 2014 at 8:00 PM


Visibility: 5 mi

Pressure: 30.36 "Hg

Humidity: 88%

Dew point: 55 °F

Location of MalakalLocation

Historic Weather in Malakal — Graph

°F

Malakal temperature yesterday

Maximum temperature yesterday: 72 °F (at 3:00 PM)
Minimum temperature yesterday: 55 °F (at 2:00 AM)
Average temperature yesterday: 63 °F

Past Weeks' High & Low Weather Summary

 TemperatureHumidityPressure
High75 °F (Jul 23, 5:00 PM)100% (Jul 18, 7:00 AM)30.48 "Hg (Jul 18, 7:00 AM)
Low54 °F (Jul 20, 9:00 AM)49% (Jul 23, 1:00 PM)30.24 "Hg (Jul 14, 5:00 PM)
Average62 °F78%30.34 "Hg
* Reported Jul 13 7:00 PM — Jul 28 7:00 PM, Malakal, Weather by CustomWeather, © 2014

Note: Actual official high and low records may vary slightly from our data, if they occured in-between our weather recording intervals... More about our weather records

Advertising

Malakal weather history for previous 24 hours

 ConditionsComfort  
Time TempWeatherWind HumidityBarometerVisibility
7:00 PM
Jul 28
68 °FPartly cloudy.2 mph69%30.33 "HgN/A
6:00 PM68 °FPartly sunny.5 mph78%30.30 "HgN/A
5:00 PM70 °FPartly sunny.5 mph78%30.30 "HgN/A
4:00 PM70 °FPartly sunny.5 mph78%30.30 "HgN/A
2:00 PM70 °FLight rain. Partly sunny.7 mph78%30.36 "Hg6 mi
1:00 PM72 °FPartly sunny.12 mph50%30.36 "HgN/A
12:00 PM70 °FPartly sunny.7 mph53%30.39 "HgN/A
11:00 AM68 °FScattered clouds.9 mph60%30.42 "HgN/A
10:00 AM64 °FScattered clouds.8 mph68%30.42 "HgN/A
9:00 AM63 °FScattered clouds.5 mph68%30.42 "HgN/A
8:00 AM61 °FScattered clouds.6 mph72%30.42 "HgN/A
3:00 AM57 °FPassing clouds.5 mph82%30.39 "HgN/A
2:00 AM57 °FPassing clouds.No wind82%30.39 "HgN/A
1:00 AM59 °FPassing clouds.5 mph82%30.39 "HgN/A
12:00 AM61 °FPartly cloudy.7 mph83%30.39 "HgN/A
11:00 PM
Jul 27
63 °FPartly cloudy.7 mph77%30.42 "HgN/A
10:00 PM63 °FPartly cloudy.No wind77%30.39 "HgN/A
9:00 PM63 °FPassing clouds.5 mph83%30.39 "HgN/A
8:00 PM63 °FPassing clouds.No wind83%30.36 "HgN/A
Weather by CustomWeather, © 2014

See weather overviewHow to use our weather pages